星链-5356 (STARLINK-5356 )

导读 | 星芒AI

STARLINK-5356 是 SpaceX 星链计划中的一颗低轨通信卫星,属于第53批发射的星链卫星群。该卫星运行在约550公里高度的近地轨道,旨在为全球用户提供高速互联网服务。作为星链星座的一部分,它支持宽带接入、低延迟通信等功能,主要服务于偏远和网络基础设施薄弱的地区。该卫星采用可再生太阳能供电,并具备自动避障能力,以确保运行安全。

基本信息
目录编号:
56418
目录名称:
STARLINK-5356
国际标识:
2023-061AW
轨道中心:
EARTH
卫星名称:
星链-5356
卫星全名:
星链-5356 (STARLINK-5356 )
卫星状态:
在轨 (已飞行915 天)
发射日期:
2023-05-04 UTC
国别 :
美国 (US)
星等 :
--
轨道信息
数据来源 国际轨道数据
星历时间: 2025-11-04T06:10:11+0800
21小时前
查看轨道信息
半长轴: 6937.216km
偏心率: 0.0001179
轨道倾角: 43.002°
近地点辐角 269.947°
升交点赤经 135.053°
平近点角 90.123°
近地点: 558.263km
远地点: 559.899km
周期: 95.838分钟
每日圈数: 15.025363
详细信息
固有亮度:
5
最大亮度:
2.5
卫星平台:
Starlink v1.5
覆盖范围:
全球
运营商:
太空探索技术公司
运营商所在国:
美国
制造商(研发单位):
太空探索技术公司
制造商所在国:
美国
使用方式:
暂无
卫星简介
星链(Starlink)计划是由太空探索技术公司(SpaceX)提出的一个巨型低轨卫星互联网星座项目,计划在2019年至2024年间在太空搭建由约1.2万颗卫星组成的“星链”网络,其中1584颗将部署在地球上空550千米处的近地轨道,并从2020年开始工作。该卫星仍在工作。
2D轨道图
3D轨道图
轨道高度分析图
轨道倾角分析图
轨道综合分析图
查看轨道综合分析图